Weather in Nova Kotelnia

Ukraine / Zhytomyr Region     50°05′54″N   28°55′52″E
temp.,
°C
wind,
m/s
gust,
m/s
humid.,
%
clouds,
%
prec.,
mm/h
press.,
hPa
HPBL,
m
14 may, fri
fri1400:00+10sse61288100 0.2 1008500
03:00+10sse5128681 0.3 1008438
06:00+8se410925 0.0 1007251
09:00+13sse576717 0.0 1006457
12:00+17sse6757100 0.0 10061182
15:00+15ssw457399 0.3 1006678
18:00+13sw378787 0.6 1006318
21:00+12ssw3891100 0.7 1006226
15 may, sat
sat1500:00+11sw4895100 0.9 1007243
03:00+11sw3695100 1.1 1008193
06:00+10sw379594 0.1 1008188
09:00+14wsw577558 0.1 1009651
12:00+15ssw686997 0.0 10101033
15:00+13wsw688099 0.1 1011792
18:00+14wsw567599 0.1 1011896
21:00+11wsw36896 0.1 1012147
16 may, sun
sun1600:00+9wsw33935 0.0 101240
03:00+9sw22924 0.0 101316
06:00+9sse22915 0.0 101324
09:00+15se3471100 0.0 1013360
12:00+19se456038 0.0 1012986
15:00+21sse6760100 0.6 10111493
18:00+20sse4768100 0.9 1009615
21:00+15ese4886100 1.3 1009120
17 may, mon
mon1700:00+13ese3688100 0.2 1008104
03:00+13se369099 0.8 1008128
06:00+13ese2392100 0.2 100769
09:00+13w3594100 0.7 1007180
12:00+16nnw448492 0.6 1007635
15:00+15wnw5886100 2.3 1008693
18:00+15wnw4678100 0.0 1008581
21:00+12wnw34874 0.2 100950
18 may, tue
tue1800:00+10wnw22890 0.0 101126
03:00+9w33901 0.0 101131
06:00+9w2289100 0.0 101238
09:00+15ssw117149 0.0 1012301
12:00+19se33565 0.0 10111142
15:00+20se565449 0.0 10091806
18:00+18se5971100 0.6 1008826
21:00+16ese61480100 0.8 1006385